This demonstration page uses our WeatherBlox Daily Observations layout. Learn more.

Hourly Observations for January 31, 2018

Temp ( °F °C ) Dew Point ( °F °C ) Humidity (%) Winds ( mph kmh ) Pressure ( in mb ) Visibility ( mi km ) Precip ( " mm )
12:15 am 00:15 Clear 41 5 30 -1 66 66 WSW 6 9 29.74 1007 10 16.0934 0 0
12:35 am 00:35 Clear 44 6.6 30 -1.3 57 57 WNW 7 11 29.74 1007 10 16.0934 0 0
12:55 am 00:55 Clear 41 5.1 29 -1.8 61 61 WNW 7 11 29.8 1009 10 16.0934 0 0
2:35 am 02:35 Clear 38 3.5 30 -1.1 72 72 N 15 24 29.85 1011 10 16.0934 0 0
2:55 am 02:55 Clear 37 2.6 29 -1.4 75 75 N 16 26 29.85 1011 10 16.0934 0 0
3:15 am 03:15 Clear 36 2.3 29 -1.5 76 76 N 10 17 29.88 1012 10 16.0934 0 0
3:35 am 03:35 Clear 35 1.7 29 -1.7 78 78 N 12 19 29.88 1012 10 16.0934 0 0
3:55 am 03:55 Clear 35 1.6 29 -1.6 80 80 N 10 17 29.88 1012 10 16.0934 0 0
4:15 am 04:15 Clear 34 1.2 29 -1.6 82 82 N 9 15 29.94 1014 10 16.0934 0 0
4:35 am 04:35 Clear 32 0.2 28 -2.1 85 85 NNE 7 11 29.94 1014 10 16.0934 0 0
4:55 am 04:55 Clear 31 -0.3 28 -2.2 87 87 N 7 11 29.91 1013 10 16.0934 0 0
5:15 am 05:15 Clear 32 0 29 -1.8 88 88 N 6 9 29.94 1014 10 16.0934 0 0
5:35 am 05:35 Clear 32 0 29 -1.9 87 87 Calm 29.94 1014 10 16.0934 0 0
5:55 am 05:55 Clear 31 -0.8 28 -2.3 90 90 N 8 13 29.94 1014 10 16.0934 0 0
6:15 am 06:15 Clear 31 -0.4 28 -2.4 87 87 Calm 29.97 1015 10 16.0934 0 0
6:35 am 06:35 Clear 28 -2.5 26 -3.6 92 92 N 3 6 30 1016 10 16.0934 0 0
6:55 am 06:55 Clear 29 -1.6 28 -2.3 95 95 Calm 30 1016 10 16.0934 0 0
7:15 am 07:15 Clear 31 -0.3 30 -1 95 95 Calm 29.94 1014 10 16.0934 0 0
7:35 am 07:35 Clear 32 -0.1 29 -1.4 91 91 Calm 29.97 1015 10 16.0934 0 0
7:55 am 07:55 Sunny 32 0 31 -0.8 94 94 WSW 5 7 29.97 1015 10 16.0934 0 0
8:15 am 08:15 Sunny 32 0.1 30 -1.1 92 92 WSW 5 7 30 1016 10 16.0934 0 0
8:35 am 08:35 Sunny 32 0 30 -1.3 91 91 WNW 3 6 29.97 1015 10 16.0934 0 0
8:55 am 08:55 Sunny 33 0.5 30 -1 90 90 Calm 29.97 1015 10 16.0934 0 0
9:15 am 09:15 Sunny 34 1 31 -0.5 90 90 WSW 5 7 30 1016 10 16.0934 0 0
9:35 am 09:35 Sunny 35 1.5 31 -0.3 88 88 Calm 30 1016 10 16.0934 0 0
9:55 am 09:55 Sunny 36 2.2 31 -0.5 83 83 WSW 5 7 29.97 1015 10 16.0934 0 0
10:15 am 10:15 Sunny 37 2.6 31 -0.6 80 80 W 6 9 29.97 1015 10 16.0934 0 0
10:35 am 10:35 Sunny 37 3 31 -0.7 77 77 W 3 6 29.97 1015 10 16.0934 0 0
10:55 am 10:55 Sunny 38 3.3 30 -1 74 74 WSW 5 7 29.97 1015 10 16.0934 0 0
11:15 am 11:15 Sunny 38 3.5 30 -1 73 73 WNW 6 9 29.97 1015 10 16.0934 0 0
11:35 am 11:35 Sunny 39 3.7 29 -1.4 70 70 W 7 11 30 1016 10 16.0934 0 0
11:55 am 11:55 Sunny 39 4 29 -1.7 67 67 W 7 11 29.97 1015 10 16.0934 0 0
12:15 pm 12:15 Sunny 39 4.1 29 -1.9 65 65 W 6 9 29.97 1015 10 16.0934 0 0
12:35 pm 12:35 Sunny 40 4.5 28 -2.3 62 62 WNW 10 17 29.97 1015 10 16.0934 0 0
12:55 pm 12:55 Sunny 41 4.8 28 -2.1 61 61 WNW 9 15 29.97 1015 10 16.0934 0 0
1:15 pm 13:15 Sunny 42 5.7 28 -2.4 56 56 WNW 8 13 29.91 1013 10 16.0934 0 0
1:35 pm 13:35 Sunny 42 5.8 26 -3.6 51 51 WNW 8 13 29.91 1013 10 16.0934 0 0
1:55 pm 13:55 Sunny 43 6.1 26 -3.6 50 50 WNW 9 15 29.91 1013 10 16.0934 0 0
2:15 pm 14:15 Sunny 43 6 24 -4.2 48 48 WNW 7 11 29.91 1013 10 16.0934 0 0
2:35 pm 14:35 Sunny 44 6.5 24 -4.5 46 46 WNW 9 15 29.91 1013 10 16.0934 0 0
2:55 pm 14:55 Sunny 43 6.2 22 -5.4 44 44 WNW 8 13 29.91 1013 10 16.0934 0 0
3:15 pm 15:15 Sunny 44 6.5 25 -4.1 47 47 NW 9 15 29.91 1013 10 16.0934 0 0
3:35 pm 15:35 Sunny 44 6.5 25 -4.1 47 47 NW 12 19 29.91 1013 10 16.0934 0 0
3:55 pm 15:55 Sunny 44 6.5 22 -5.5 42 42 NNW 13 20 29.94 1014 10 16.0934 0 0
4:15 pm 16:15 Sunny 44 6.7 23 -4.8 44 44 NW 10 17 29.94 1014 10 16.0934 0 0
4:35 pm 16:35 Sunny 43 6 24 -4.7 47 47 NW 8 13 29.94 1014 10 16.0934 0 0
4:55 pm 16:55 Sunny 43 5.9 26 -3.3 52 52 NW 10 17 29.94 1014 10 16.0934 0 0
5:15 pm 17:15 Sunny 41 4.9 27 -3 57 57 NW 7 11 29.97 1015 10 16.0934 0 0
5:35 pm 17:35 Sunny 39 3.7 26 -3.3 61 61 WNW 6 9 30 1016 10 16.0934 0 0
6:15 pm 18:15 Clear 37 2.5 25 -3.7 64 64 W 5 7 30 1016 10 16.0934 0 0
6:35 pm 18:35 Clear 37 2.5 26 -3.3 66 66 W 3 6 30 1016 10 16.0934 0 0
6:55 pm 18:55 Clear 36 2 26 -3.2 69 69 WNW 5 7 30.06 1018 10 16.0934 0 0
7:15 pm 19:15 Partly Cloudy 35 1.6 27 -3 72 72 WNW 6 9 30.06 1018 10 16.0934 0 0
7:35 pm 19:35 Cloudy 35 1.7 28 -2 77 77 NW 5 7 30.09 1019 10 16.0934 0 0
7:55 pm 19:55 Cloudy 36 2 29 -1.5 78 78 NW 3 6 30.09 1019 10 16.0934 0 0
8:15 pm 20:15 Cloudy 35 1.8 29 -1.5 79 79 Calm 30.09 1019 10 16.0934 0 0
8:35 pm 20:35 Cloudy 35 1.8 29 -1.5 79 79 Calm 30.09 1019 10 16.0934 0 0
8:55 pm 20:55 Cloudy 35 1.8 29 -1.5 79 79 WNW 3 6 30.09 1019 10 16.0934 0 0
9:15 pm 21:15 Cloudy 35 1.8 29 -1.7 78 78 WNW 3 6 30.09 1019 10 16.0934 0 0
9:35 pm 21:35 Mostly Cloudy 35 1.5 28 -2 78 78 WNW 5 7 30.09 1019 10 16.0934 0 0
9:55 pm 21:55 Partly Cloudy 35 1.5 28 -2.3 76 76 WNW 7 11 30.09 1019 10 16.0934 0 0
10:15 pm 22:15 Mostly Cloudy 33 0.8 28 -2.3 80 80 WNW 5 7 30.09 1019 10 16.0934 0 0
10:35 pm 22:35 Cloudy 34 1 28 -2 81 81 NW 7 11 30.09 1019 10 16.0934 0 0
10:55 pm 22:55 Partly Cloudy 35 1.5 28 -2.2 77 77 NW 7 11 30.09 1019 10 16.0934 0 0
11:15 pm 23:15 Partly Cloudy 36 2 28 -2.3 73 73 NW 10 17 30.12 1020 10 16.0934 0 0
11:35 pm 23:35 Cloudy 36 2.2 28 -2.4 72 72 NW 13 20 30.12 1020 10 16.0934 0 0
11:55 pm 23:55 Partly Cloudy 36 2.2 28 -2.3 72 72 NNW 12 19 30.15 1021 10 16.0934 0 0

Powered by AerisWeather